Date,TemperatureHighF,TemperatureAvgF,TemperatureLowF,DewpointHighF,DewpointAvgF,DewpointLowF,HumidityHigh,HumidityAvg,HumidityLow,PressureMaxIn,PressureMinIn,WindSpeedMaxMPH,WindSpeedAvgMPH,GustSpeedMaxMPH,PrecipitationSumIn
2013-11-1,73,68,63,62,60,57,82,75,61,29.96,29.72,27,9,27,0.21
2013-11-2,75,62,55,57,42,26,81,53,18,30.00,29.75,15,4,15,0.01
2013-11-3,65,51,36,35,30,23,72,47,21,30.44,30.00,22,4,22,0.00
2013-11-4,56,42,32,32,26,18,76,55,24,30.63,30.43,19,5,28,0.00
2013-11-5,61,48,35,42,34,25,69,60,44,30.61,30.49,16,5,16,0.00
2013-11-6,75,56,43,47,42,35,77,62,35,30.49,30.17,11,3,11,0.00
2013-11-7,72,58,43,58,43,23,82,60,33,30.18,29.98,18,4,19,0.02
2013-11-8,44,38,30,26,21,19,67,52,39,30.39,30.16,20,2,20,0.00
2013-11-9,58,42,27,32,22,15,76,49,19,30.43,30.22,14,3,14,0.00
2013-11-10,74,54,33,38,22,4,73,36,7,30.30,30.11,27,4,27,0.00
2013-11-11,39,36,35,25,24,23,64,60,53,30.23,30.18,2,0,2,0.00
2013-11-12,58,37,31,39,26,14,75,65,33,30.40,30.09,19,2,19,0.12
2013-11-13,33,26,23,13,12,10,63,54,37,30.54,30.50,5,1,5,0.00
2013-11-14,62,38,19,23,8,-27,74,41,2,30.50,29.74,17,3,17,0.00
2013-11-15,62,45,26,38,26,15,69,50,25,30.41,30.26,11,2,11,0.00
2013-11-16,60,54,48,51,47,38,82,77,66,30.34,30.27,8,2,8,0.09
2013-11-17,69,60,54,57,52,48,84,77,61,30.29,29.98,12,3,12,0.02
2013-11-18,76,66,52,59,33,19,82,31,15,30.04,29.88,19,4,19,0.07
2013-11-19,57,48,38,24,20,14,54,34,19,30.39,30.03,21,5,21,0.00
2013-11-20,53,43,34,32,24,20,68,48,30,30.52,30.38,21,6,21,0.00
2013-11-21,60,48,38,40,35,30,73,61,46,30.57,30.44,14,4,14,0.00
2013-11-22,70,58,45,54,46,36,75,65,52,30.45,30.13,17,4,17,0.00
2013-11-23,63,57,43,54,37,13,76,51,18,30.19,30.09,17,5,17,0.00
2013-11-24,37,29,23,2,-7,-18,38,22,9,30.56,30.48,16,3,16,0.04
2013-11-25,46,39,25,15,-5,-19,60,17,6,30.64,30.43,12,5,12,0.00
2013-11-26,64,42,33,59,32,10,84,70,34,30.42,29.66,21,6,21,0.96
2013-11-27,47,39,28,42,31,13,84,74,53,30.20,29.56,22,4,22,0.53
2013-11-28,48,32,21,18,14,8,70,50,21,30.53,30.19,13,2,13,0.01
2013-11-29,50,34,21,26,17,14,77,55,25,30.70,30.51,17,4,17,0.00
2013-11-30,50,32,25,25,20,16,74,62,37,30.71,30.42,14,4,15,0.00